Kuiper-00188

operational
NORAD ID: 67142 Int'l Des: 2025-301 Owner: KUIP Country: US Constellation: kuiper
LEOCIRCULAR

关于 Kuiper-00188

正在加载描述...

实时位置

正在加载3D地球...

即将过境

高度历史

Altitude vs Time

uPlot chart will show altitude changes over time

两行轨道根数

1 67142U 25301K 26033.96426340 .00036869 00000-0 10165-2 0 9996
2 67142 51.8665 233.2473 0008556 268.2786 91.7221 15.36728428 8398
Epoch: Feb 2, 2026 • Age: 24 hours

当前状态

高度 467.5 km
速度 7.64 km/s
星下点 51.99°N, 157.26°W
发射日期 Dec 16, 2025
运行时间 0.1 years
类型 internet

技术详情

分类 Payload
质量 490.00 kg
干质量 490.00 kg
总质量 490.00 kg
长度 1.80 m
直径 0.70 m
跨度 5.00 m
形状 Box + 2 pan
制造商 KUIP
平台类型 Kuiper
阶段状态 In Orbit
所有者/国家 KUIP/US

大型星座

Loading constellations...